Погода в Адаке

США     51°52′11″N   176°38′27″W
темп.,
°C
ветер,
м/с
пор.,
м/с
влажн.,
%
обл.,
%
осадки,
мм/ч
давл.,
гПа
погр.,
м
21 октября, чт
чт2101:00+9юз172598100 2.5 972887
04:00+4зсз222791100 3.3 975991
07:00+5зсз222683100 0.2 9851395
10:00+3зсз2126705 0.3 9921841
13:00+3зсз1925695 0.2 9982048
16:00+3зсз1823666 0.4 10012231
19:00+3зсз17216292 0.2 10042148
22:00+2зсз15196397 0.3 10061629
22 октября, пт
пт2201:00+3зсз13166499 0.1 10071298
04:00+3зсз11146284 0.4 1008915
07:00+2зсз9126582 0.2 1007758
10:00+3сз81062100 0.4 1006626
13:00+3ссз896271 0.2 10071361
16:00+4сз10125397 0.3 10081974
19:00+4сз11155715 0.1 10102022
22:00+3сз9146031 0.3 10131102
23 октября, сб
сб2301:00+3сз11146017 0.1 1016909
04:00+3сз8116366 0.1 1017633
07:00+3зсз8116597 0.1 1018546
10:00+3з687197 0.1 1019377
13:00+4з5567100 0.0 1019768
16:00+4юз4464100 0.0 1018965
19:00+4ююв3466100 0.0 1016844
22:00+4вюв5767100 0.0 1014552
24 октября, вс
вс2401:00+3вюв7979100 0.1 1012788
04:00+3в81196100 1.9 1009703
07:00+3в111597100 3.4 1006917
10:00+2всв121697100 6.6 1003947
13:00+1св101594100 2.8 1004917
16:00+3св10138978 3.3 10041002
19:00+3ссв9118591 0.2 1007881
22:00+2ссв578469 0.3 1009327
25 октября, пн
пн2501:00+3с1280100 0.1 1011184
04:00+3зсз2277100 0.3 1012198
07:00+3зсз2386100 0.3 1013149
10:00+2зсз2289100 0.3 1014154
13:00+3з3586100 0.0 1016450
16:00+5з887992 0.1 1016838
19:00+4з788383 0.1 1017729
22:00+4з47815 0.1 1019332